GW7009 Weather Reports


time (UTC)temp
C
wind
direction
speed
KPH
gust
KPH
rain 1hr
cm
rain 24hr
cm
rain mn
cm
humidity
%
barometer
mb
20260510020016 11 173 0.0 3.2 0.00 0.43 0.43 90 1010.2
20260510014520 11 173 0.0 3.2 0.00 0.43 0.43 89 1010.0
20260510013028 11 173 0.0 1.6 0.00 0.43 0.43 87 1009.9
20260510011526 12 179 0.0 0.0 0.00 0.43 0.43 85 1009.9
20260510010010 12 179 0.0 3.2 0.00 0.43 0.43 84 1009.7
20260510004516 12 179 0.0 3.2 0.00 0.43 0.43 84 1009.8
20260510003005 13 171 0.0 0.0 0.00 0.43 0.43 82 1009.7
20260510001513 14 171 0.0 1.6 0.00 0.43 0.43 77 1009.4
20260510000012 15 181 0.0 3.2 0.00 0.43 0.43 76 1009.4
20260509234517 15 181 0.0 4.8 0.00 0.43 0.43 72 1009.3
20260509233022 16 220 1.6 4.8 0.00 0.43 0.43 70 1009.1
20260509231505 16 193 3.2 4.8 0.00 0.43 0.43 69 1009.1
20260509230008 16 179 1.6 8.0 0.00 0.43 0.43 68 1009.3
20260509224514 16 150 1.6 8.0 0.00 0.43 0.43 69 1009.2
20260509223018 16 233 1.6 6.4 0.00 0.43 0.43 70 1009.1
20260509221526 16 196 0.0 6.4 0.00 0.43 0.43 70 1009.1
20260509220008 16 207 3.2 4.8 0.00 0.43 0.43 69 1009.2
20260509214513 16 211 1.6 8.0 0.00 0.43 0.43 70 1009.3
20260509213019 15 233 0.0 3.2 0.00 0.43 0.43 74 1009.4
20260509211526 15 8 0.0 3.2 0.00 0.43 0.43 74 1009.9
20260509210007 15 288 1.6 3.2 0.00 0.43 0.43 74 1010.0
20260509204518 15 360 0.0 3.2 0.00 0.43 0.43 75 1009.8
20260509203015 15 57 1.6 3.2 0.00 0.43 0.43 74 1009.6
20260509201520 15 113 0.0 3.2 0.00 0.43 0.43 76 1010.0
20260509200022 15 6 1.6 3.2 0.00 0.43 0.43 73 1010.2
20260509194509 15 295 3.2 6.4 0.00 0.43 0.43 74 1010.2
20260509193013 15 231 3.2 8.0 0.00 0.43 0.43 73 1010.3
20260509191518 15 245 3.2 9.7 0.00 0.43 0.43 75 1010.5
20260509190024 14 183 3.2 11.3 0.03 0.43 0.43 81 1010.6
20260509184532 13 86 1.6 9.7 0.03 0.43 0.43 82 1010.7
20260509183011 13 145 1.6 4.8 0.03 0.43 0.43 87 1010.8
20260509181516 12 187 1.6 3.2 0.03 0.43 0.43 86 1010.9
20260509180023 12 243 1.6 4.8 0.03 0.41 0.41 87 1011.2
20260509174524 12 222 0.0 3.2 0.03 0.41 0.41 88 1011.2
20260509173026 12 283 0.0 3.2 0.03 0.41 0.41 87 1011.1
20260509171515 12 163 0.0 3.2 0.05 0.41 0.41 87 1011.1
20260509170020 11 149 1.6 4.8 0.10 0.38 0.38 86 1011.2
20260509164523 11 140 0.0 1.6 0.23 0.38 0.38 83 1011.3
20260509163025 11 35 0.0 3.2 0.33 0.38 0.38 85 1011.2
20260509161513 11 8 1.6 3.2 0.33 0.36 0.36 87 1011.1
20260509160015 11 332 0.0 3.2 0.25 0.28 0.28 85 1011.5
20260509154524 11 250 0.0 4.8 0.15 0.15 0.15 84 1012.0
20260509153008 12 216 1.6 4.8 0.05 0.05 0.05 81 1011.9
20260509151508 12 204 3.2 8.0 0.03 0.03 0.03 79 1011.9
20260509150018 12 227 1.6 6.4 0.03 0.03 0.03 74 1011.9
20260509144521 13 222 3.2 9.7 0.00 0.00 0.00 69 1011.9
20260509143025 13 195 3.2 4.8 0.00 0.00 0.00 67 1011.7
20260509141506 13 266 1.6 4.8 0.00 0.00 0.00 67 1011.5
20260509140011 13 256 1.6 6.4 0.00 0.00 0.00 70 1011.5
20260509134515 13 289 1.6 4.8 0.00 0.00 0.00 71 1011.2
20260509133020 13 210 1.6 8.0 0.00 0.00 0.00 68 1011.0
20260509131534 13 207 1.6 6.4 0.00 0.00 0.00 67 1011.3
20260509130021 13 211 1.6 4.8 0.00 0.00 0.00 67 1011.1
20260509124522 12 286 1.6 3.2 0.00 0.00 0.00 75 1011.2
20260509123025 12 286 1.6 3.2 0.00 0.00 0.00 78 1011.3
20260509121531 12 6 0.0 3.2 0.00 0.00 0.00 81 1010.7
20260509120008 11 121 0.0 3.2 0.00 0.00 0.00 82 1010.9
20260509114512 11 113 1.6 4.8 0.00 0.00 0.00 81 1010.8
20260509113021 11 264 0.0 3.2 0.00 0.00 0.00 83 1010.7
20260509111523 10 262 0.0 0.0 0.00 0.00 0.00 83 1010.8
20260509110028 10 262 0.0 0.0 0.00 0.00 0.00 85 1010.8
20260509104508 10 345 0.0 3.2 0.00 0.00 0.00 83 1010.6
20260509103016 10 216 0.0 3.2 0.00 0.00 0.00 83 1010.6
20260509101523 10 228 3.2 4.8 0.00 0.00 0.00 82 1010.4
20260509100028 10 129 0.0 3.2 0.00 0.00 0.00 82 1010.2
20260509094527 9 135 0.0 3.2 0.00 0.00 0.00 82 1010.7
20260509093014 10 120 0.0 3.2 0.00 0.00 0.00 81 1010.4
20260509091520 10 122 0.0 3.2 0.00 0.00 0.00 79 1010.4
20260509090022 10 147 0.0 3.2 0.00 0.00 0.00 79 1010.7
20260509084534 10 83 0.0 3.2 0.00 0.00 0.00 78 1010.7
20260509083043 10 55 0.0 3.2 0.00 0.00 0.00 77 1010.9
20260509081516 9 84 0.0 3.2 0.00 0.00 0.00 80 1011.1
20260509080028 8 84 0.0 3.2 0.00 0.00 0.00 81 1011.0
20260509074524 8 84 0.0 0.0 0.00 0.00 0.00 81 1011.1
20260509073026 8 84 0.0 3.2 0.00 0.00 0.00 79 1011.2
20260509071516 9 84 0.0 3.2 0.00 0.00 0.00 78 1011.4
20260509070022 10 78 0.0 0.0 0.00 0.00 0.00 76 1011.3
20260509064522 10 78 0.0 3.2 0.00 0.00 0.00 73 1011.3
20260509063006 10 107 1.6 3.2 0.00 0.00 0.00 74 1011.4
20260509061515 11 248 1.6 3.2 0.00 0.00 0.00 76 1011.4
20260509060018 11 90 1.6 3.2 0.00 0.00 0.00 71 1011.4
20260509054524 10 145 0.0 1.6 0.00 0.00 0.00 76 1011.7
20260509053032 10 116 0.0 3.2 0.00 0.00 0.00 74 1011.8
20260509051508 10 116 0.0 3.2 0.00 0.00 0.00 77 1012.0
20260509050015 11 151 0.0 4.8 0.00 0.00 0.00 72 1011.9
20260509044518 10 113 0.0 3.2 0.00 0.00 0.00 73 1012.0
20260509043022 11 116 1.6 3.2 0.00 0.00 0.00 69 1012.1
20260509041537 11 219 0.0 3.2 0.00 0.00 0.00 69 1012.2
20260509040014 12 238 0.0 3.2 0.00 0.00 0.00 68 1012.1
20260509034516 12 204 0.0 3.2 0.00 0.00 0.00 67 1012.4
20260509033022 12 29 0.0 3.2 0.00 0.00 0.00 69 1012.4
20260509031530 13 108 0.0 3.2 0.00 0.00 0.00 60 1012.6
20260509030029 12 183 0.0 3.2 0.00 0.00 0.00 64 1012.7
20260509024514 11 197 4.8 9.7 0.00 0.00 0.00 71 1012.5
20260509023023 11 218 0.0 3.2 0.00 0.00 0.00 70 1012.0
20260509021527 12 219 0.0 3.2 0.00 0.00 0.00 68 1012.4